Wind_Speed
48 56 54 44 48 41 44 55 46 43 44 42 39 26 17 21 27 26 21 18 17 17 19 15 11 14 7 9 3 5 1 2 4 4 7 2 2 9 6 6 3 15 16 5
23 25 40 48 36 42 45 42 37 41 43 27 29 26 26 23 23 21 20 20 18 18 20 10 12 15 12 8 5 4 4 0 4 3 6 7 5 12 9 10 14 5 4 5
18 22 21 34 39 42 42 38 37 43 44 27 32 33 26 27 24 20 18 15 17 21 19 13 17 16 11 7 7 2 4 1 3 8 7 9 7 11 10 5 7 5 5 5
18 22 27 36 43 47 41 44 39 46 42 34 35 29 24 22 22 18 15 16 18 20 16 16 18 14 11 10 8 1 5 2 6 10 11 10 1 9 10 9 12 6 3 9
29 33 40 41 40 38 30 29 40 33 39 31 31 30 25 29 23 21 22 15 20 21 17 12 20 16 14 8 8 1 3 2 7 5 5 10 6 7 13 10 9 9 6 8
29 30 33 34 35 29 25 23 33 20 40 35 32 27 26 24 26 19 16 18 21 19 17 15 18 16 16 12 7 3 1 1 5 4 3 10 2 8 6 11 11 11 12 14
28 30 35 36 35 26 21 26 32 24 30 26 24 28 28 26 22 16 21 18 16 16 15 14 12 12 12 10 7 4 1 3 4 4 2 3 1 4 4 3 5 8 9 13
23 26 30 32 30 24 19 27 30 30 26 28 28 26 25 25 19 14 16 15 14 15 14 15 10 9 10 9 8 6 5 4 4 3 1 5 2 7 4 7 8 8 11 12
24 23 24 31 31 20 23 18 22 24 27 21 26 25 21 24 21 18 16 15 15 15 18 14 10 8 9 7 4 9 8 6 4 4 3 3 5 7 4 3 6 6 12 14
22 20 21 28 30 26 19 15 17 15 27 29 24 24 26 22 20 18 17 17 16 16 17 10 8 6 10 8 8 7 6 5 7 5 4 3 5 4 2 2 6 10 12 15
22 22 23 30 31 23 18 16 17 18 20 27 23 19 19 17 17 15 16 17 16 17 13 9 6 6 9 7 7 7 6 4 4 3 5 4 4 3 5 6 9 10 11 12
27 25 24 21 20 19 19 19 19 20 22 26 22 17 15 12 12 13 16 14 18 16 12 9 8 7 10 10 6 8 4 6 4 5 6 5 2 2 3 4 7 9 11 12
27 29 24 22 16 20 19 21 22 20 18 25 21 16 13 11 12 12 13 11 16 13 13 14 10 6 11 8 7 7 8 8 5 4 4 3 1 2 2 3 6 9 10 12
30 29 28 19 18 20 19 20 22 21 23 21 20 15 13 12 11 10 10 10 11 12 13 12 10 8 10 8 7 8 8 7 6 8 7 3 4 2 1 4 7 9 10 11
26 28 25 19 21 22 21 22 23 23 17 22 21 16 14 12 11 9 9 9 10 10 10 9 10 10 7 9 9 9 11 13 10 9 6 5 3 1 3 6 9 10 10 12
28 29 24 23 23 23 23 23 22 23 12 21 21 16 13 11 9 9 9 8 8 8 8 8 7 7 8 5 5 7 9 13 12 10 7 5 5 5 7 10 11 12 12 13
27 27 23 24 23 23 24 22 23 24 17 18 19 15 14 12 10 8 8 8 9 8 8 7 6 6 6 6 6 8 9 8 10 8 6 5 6 7 11 12 12 12 12 12
27 26 25 25 24 24 21 19 21 20 20 16 9 10 16 13 10 8 7 7 8 8 7 6 6 5 5 3 3 4 6 7 7 8 7 6 7 10 11 12 12 11 11 11
28 25 25 23 25 24 19 19 17 14 15 9 10 15 16 17 14 10 6 5 7 6 7 7 5 5 4 4 3 3 5 6 5 6 6 6 8 10 10 9 9 9 10 11
33 24 27 25 23 22 19 18 15 15 16 13 11 15 16 17 18 12 7 6 6 5 7 5 5 6 6 6 7 7 7 6 6 6 6 6 8 8 7 7 7 8 8 8
35 32 27 25 20 19 18 12 15 13 11 16 14 16 12 15 17 13 9 6 6 5 5 5 3 3 6 5 6 6 6 6 6 5 6 6 6 6 5 4 4 5 6 8
23 23 22 24 19 11 7 14 12 9 10 15 18 16 15 19 17 9 8 5 6 3 6 4 3 6 8 6 5 6 6 6 5 5 5 4 4 3 1 3 4 6 8 10
18 25 21 14 7 8 9 11 10 8 13 16 22 21 19 21 13 7 6 5 4 4 4 4 5 7 7 7 6 6 6 5 5 5 4 3 2 2 3 3 5 6 8 10
25 11 10 6 6 8 9 16 17 14 17 21 23 24 16 19 11 6 4 5 5 3 4 4 5 6 6 8 7 5 5 5 5 5 4 4 4 4 3 2 3 6 9 10
9 6 4 5 7 10 13 15 15 14 18 25 25 23 15 19 6 5 4 5 4 6 3 3 5 5 5 6 6 6 5 5 6 6 6 6 6 4 3 1 3 6 8 9
6 4 7 9 11 11 14 15 12 12 19 27 23 15 9 9 5 7 6 4 4 5 5 4 4 3 3 4 4 5 5 6 7 8 8 9 7 6 5 1 3 5 7 8
6 8 8 8 9 10 10 14 12 16 21 23 11 8 8 7 6 7 8 8 5 3 4 4 5 7 8 6 6 6 7 8 9 10 10 10 9 9 6 4 5 6 7 8
Wind_Direction
160 176 196 181 190 196 202 202 191 176 164 170 181 186 192 187 180 182 185 192 196 178 177 176 176 182 189 192 161 152 59 196 314 272 246 122 39 350 300 268 279 294 280 89
191 189 178 187 197 207 206 188 184 168 168 177 180 184 182 177 175 180 184 189 193 182 174 163 172 178 187 172 145 149 25 94 3 151 175 235 304 348 323 273 272 294 349 47
208 208 212 189 184 191 193 196 154 170 180 178 180 177 177 178 181 186 190 188 180 175 173 167 174 176 186 160 159 137 32 145 232 267 297 285 287 347 354 342 274 55 69 21
204 202 187 184 185 175 186 181 165 171 184 180 182 176 179 181 182 195 193 182 184 176 163 166 167 181 168 162 157 90 351 296 262 275 262 247 77 23 17 54 30 40 70 8
183 183 169 155 155 148 151 162 168 157 169 174 177 187 183 187 187 198 194 192 177 180 181 175 172 167 162 164 157 70 335 247 279 254 120 213 74 56 40 57 65 45 32 350
154 148 147 149 149 148 143 157 159 171 166 177 177 181 174 190 203 189 188 184 175 176 178 173 170 172 169 161 160 158 191 233 275 210 310 158 69 22 37 43 43 42 29 4
158 151 150 160 158 142 142 155 162 158 175 172 178 188 201 195 189 195 175 176 182 180 175 169 167 175 176 175 179 193 228 256 250 248 251 204 98 8 245 297 17 29 10 8
149 150 157 158 161 154 136 162 173 189 188 183 184 184 186 187 189 181 183 182 181 167 160 139 130 142 150 181 203 228 247 235 258 257 341 140 42 317 248 209 266 344 349 353
159 164 163 166 167 158 155 167 181 192 187 171 183 182 188 186 185 179 183 184 181 171 163 160 181 173 169 175 172 228 234 232 227 241 243 214 158 332 326 238 219 280 322 332
156 173 185 182 175 170 171 164 167 170 176 171 176 185 183 189 189 187 182 181 177 175 173 174 167 154 169 161 186 184 198 209 227 236 237 217 209 327 343 238 262 304 316 326
163 168 171 182 178 174 176 173 162 169 177 169 173 177 179 180 185 188 185 176 184 181 178 183 165 158 174 164 180 190 191 208 211 206 218 213 222 269 236 270 302 315 329 333
163 169 181 183 169 175 179 172 165 160 167 158 159 161 166 175 179 183 180 184 187 183 183 179 177 146 167 177 179 200 195 189 202 189 214 241 261 249 277 315 339 344 345 339
164 160 165 163 177 176 174 168 165 151 160 153 161 168 169 173 170 168 174 184 186 192 189 176 170 155 172 170 202 192 224 223 229 243 239 272 162 127 63 4 347 344 348 352
178 172 161 174 173 171 170 169 170 166 159 160 163 171 172 165 163 163 166 169 178 179 180 183 180 174 187 187 204 190 221 235 249 245 267 225 176 167 60 0 348 342 336 334
186 189 168 180 170 168 168 164 169 169 164 168 164 165 167 169 172 166 162 165 169 171 175 179 182 186 176 205 217 233 238 245 240 239 239 229 218 261 327 338 333 329 328 329
182 169 165 173 168 164 161 162 170 167 167 163 150 163 168 175 184 185 184 183 179 180 182 181 188 191 193 194 198 239 238 237 232 225 225 249 266 297 316 323 324 324 324 323
148 164 170 167 166 165 167 169 166 169 165 166 149 157 176 181 183 184 185 189 186 185 183 186 186 195 204 239 225 254 237 227 217 225 249 267 287 302 309 312 316 317 318 321
151 155 165 167 166 164 162 157 165 165 164 160 155 169 178 186 192 184 180 174 170 171 171 180 192 204 221 227 240 244 218 206 219 241 250 255 277 297 306 311 313 316 320 323
167 163 162 165 168 166 157 154 162 168 178 181 184 168 175 195 198 190 196 178 167 168 179 187 188 206 213 200 203 174 171 188 199 211 234 269 295 306 311 314 317 323 328 331
171 164 165 165 162 163 163 160 179 192 204 203 200 191 183 188 194 194 191 177 170 167 195 200 229 233 229 229 224 216 210 212 222 240 264 287 300 306 313 320 326 331 335 342
156 157 163 161 159 165 177 178 188 193 203 205 197 192 195 185 188 186 182 169 167 173 202 193 236 207 199 192 197 209 217 223 236 253 275 286 299 309 315 328 353 8 8 7
156 170 169 161 150 159 174 178 183 183 183 183 188 183 182 177 175 176 185 180 177 175 190 202 233 204 194 201 212 223 226 231 240 249 264 282 294 300 14 56 39 28 21 18
150 144 139 153 160 172 176 179 173 177 174 180 179 173 171 169 163 167 171 173 182 177 202 231 204 197 211 214 208 220 227 231 239 260 272 264 203 143 107 69 43 29 24 21
148 141 138 156 166 182 176 176 180 187 181 173 174 168 166 165 156 156 170 183 174 192 227 225 208 202 203 203 216 220 222 237 252 256 222 188 172 156 130 88 41 26 17 8
141 127 131 144 143 149 158 165 169 175 173 168 167 172 168 173 164 180 178 185 204 208 199 175 177 185 198 197 206 227 235 252 248 211 195 189 186 191 209 199 20 7 358 353
138 110 135 141 138 139 158 158 156 165 166 168 167 167 170 180 183 186 196 192 205 171 155 158 177 191 216 231 228 237 256 256 223 203 200 200 205 223 230 277 336 337 335 335
137 129 142 155 145 153 161 176 162 164 160 167 167 174 177 173 203 208 208 202 167 197 214 266 272 262 253 250 258 266 269 236 212 210 211 212 226 235 240 267 294 302 309 316
Height
2895 2898 2905 2916 2929 2938 2947 2948 2964 2973 2981 2991 2999 3007 3013 3017 3020 3026 3027 3031 3039 3042 3043 3049 3053 3053 3057 3059 3058 3061 3062 3063 3063 3063 3062 3062 3062 3060 3057 3052 3044 3042 3037 3041
2910 2913 2901 2918 2929 2936 2940 2949 2959 2973 2981 2987 2996 3005 3010 3015 3018 3022 3025 3030 3035 3037 3041 3046 3049 3052 3053 3055 3055 3058 3059 3061 3061 3062 3064 3061 3060 3057 3052 3048 3046 3041 3037 3042
2910 2910 2915 2919 2923 2930 2939 2947 2961 2970 2981 2984 2995 2999 3006 3009 3016 3020 3023 3027 3032 3035 3039 3041 3045 3048 3050 3051 3053 3054 3055 3058 3060 3062 3060 3059 3058 3054 3048 3045 3043 3040 3042 3042
2909 2910 2915 2920 2924 2928 2937 2942 2953 2962 2972 2981 2990 2999 3004 3008 3012 3018 3023 3027 3029 3033 3036 3040 3042 3044 3047 3049 3051 3052 3054 3056 3059 3059 3057 3056 3055 3052 3046 3043 3041 3039 3043 3040
2911 2913 2918 2922 2926 2933 2940 2946 2952 2966 2977 2983 2992 2998 3003 3008 3011 3017 3021 3024 3028 3031 3034 3037 3038 3041 3045 3047 3049 3050 3051 3056 3056 3055 3053 3053 3052 3051 3048 3044 3041 3042 3042 3041
2916 2919 2922 2929 2934 2941 2947 2953 2961 2969 2977 2983 2992 2996 3001 3006 3010 3016 3020 3023 3026 3029 3032 3034 3037 3040 3042 3044 3047 3048 3051 3053 3055 3051 3051 3049 3050 3049 3047 3046 3044 3042 3041 3039
2918 2920 2925 2933 2938 2945 2952 2957 2965 2972 2978 2984 2990 2995 2999 3004 3010 3013 3018 3021 3024 3028 3029 3032 3036 3038 3041 3043 3045 3047 3049 3052 3053 3049 3048 3046 3049 3047 3046 3045 3044 3042 3040 3037
2921 2925 2931 2935 2942 2947 2953 2960 2967 2971 2976 2983 2988 2994 2999 3003 3009 3013 3015 3019 3022 3024 3027 3032 3036 3040 3041 3042 3043 3045 3047 3049 3050 3048 3044 3047 3047 3046 3045 3044 3043 3040 3038 3036
2925 2929 2933 2938 2944 2949 2955 2961 2966 2971 2975 2984 2988 2993 2999 3001 3005 3010 3013 3017 3019 3022 3026 3029 3033 3034 3037 3040 3041 3042 3044 3046 3049 3046 3043 3041 3044 3043 3041 3040 3041 3039 3037 3034
2927 2932 2936 2941 2947 2954 2958 2962 2966 2971 2975 2980 2988 2993 2996 3000 3004 3007 3011 3014 3017 3021 3024 3028 3030 3032 3034 3036 3039 3040 3043 3044 3045 3044 3042 3042 3042 3041 3040 3042 3043 3037 3034 3031
2929 2933 2937 2942 2948 2954 2958 2964 2967 2972 2976 2981 2987 2992 2996 2999 3002 3005 3008 3013 3015 3019 3022 3026 3025 3028 3030 3034 3035 3037 3040 3042 3042 3042 3041 3042 3040 3040 3041 3038 3035 3034 3032 3030
2929 2935 2939 2944 2950 2955 2960 2964 2969 2973 2977 2982 2988 2991 2995 2997 3000 3003 3005 3009 3011 3014 3018 3020 3022 3024 3027 3031 3034 3034 3038 3038 3040 3040 3038 3037 3037 3036 3035 3034 3033 3032 3030 3028
2932 2937 2942 2947 2952 2956 2960 2965 2970 2974 2978 2983 2988 2991 2995 2997 3000 3002 3005 3008 3010 3012 3015 3017 3019 3023 3025 3028 3032 3032 3032 3033 3034 3035 3035 3035 3035 3034 3034 3033 3032 3030 3029 3027
2931 2937 2942 2948 2951 2956 2960 2966 2971 2975 2979 2982 2988 2991 2994 2997 3000 3002 3005 3007 3009 3012 3014 3016 3017 3021 3023 3026 3028 3030 3030 3030 3031 3031 3031 3032 3033 3033 3032 3032 3030 3028 3027 3025
2931 2936 2943 2948 2952 2957 2962 2966 2971 2975 2981 2982 2988 2992 2995 2997 3000 3002 3004 3007 3009 3011 3013 3014 3016 3018 3021 3023 3025 3025 3026 3027 3029 3029 3029 3029 3030 3031 3030 3030 3028 3026 3025 3023
2930 2936 2943 2948 2953 2958 2962 2967 2972 2975 2979 2983 2987 2993 2994 2997 3000 3002 3004 3006 3008 3010 3011 3013 3014 3017 3020 3021 3023 3022 3022 3023 3024 3026 3027 3028 3028 3028 3027 3026 3025 3023 3022 3020
2932 2938 2944 2949 2954 2959 2964 2968 2971 2976 2979 2983 2987 2991 2994 2996 2999 3002 3004 3005 3007 3009 3010 3012 3014 3016 3017 3018 3019 3019 3019 3020 3022 3024 3026 3026 3026 3025 3024 3023 3021 3020 3019 3017
2934 2940 2945 2950 2955 2961 2965 2968 2972 2976 2981 2984 2986 2990 2995 2997 2999 3001 3003 3005 3006 3008 3009 3011 3013 3014 3015 3015 3016 3016 3017 3019 3021 3022 3023 3023 3023 3022 3021 3020 3019 3017 3016 3015
2935 2940 2946 2951 2956 2961 2965 2969 2973 2977 2983 2983 2985 2988 2993 2995 2998 3001 3003 3004 3006 3007 3008 3010 3013 3012 3012 3014 3014 3015 3017 3018 3019 3019 3020 3020 3020 3019 3019 3017 3016 3015 3013 3012
2936 2942 2948 2952 2957 2962 2967 2971 2975 2978 2979 2981 2984 2986 2989 2994 2997 3000 3004 3004 3005 3007 3009 3009 3009 3010 3011 3012 3013 3014 3015 3016 3017 3017 3018 3018 3017 3017 3016 3015 3014 3013 3011 3010
2935 2942 2947 2953 2957 2963 2967 2971 2974 2976 2977 2980 2983 2985 2988 2992 2996 2999 3002 3002 3004 3006 3008 3008 3007 3008 3009 3010 3011 3012 3013 3014 3014 3015 3015 3015 3015 3014 3014 3013 3012 3011 3010 3008
2940 2945 2950 2955 2961 2965 2968 2969 2972 2972 2974 2976 2981 2984 2987 2991 2996 2999 3001 3002 3004 3005 3005 3006 3005 3006 3007 3009 3009 3010 3011 3011 3012 3012 3013 3013 3012 3012 3012 3011 3011 3010 3008 3006
2944 2949 2953 2958 2961 2962 2963 2964 2967 2968 2970 2974 2977 2982 2987 2992 2995 2997 3000 3001 3003 3003 3004 3003 3003 3004 3005 3006 3007 3008 3008 3009 3009 3010 3010 3010 3010 3011 3010 3010 3010 3009 3007 3005
2947 2950 2953 2956 2957 2958 2959 2961 2964 2967 2969 2973 2978 2983 2987 2990 2994 2996 2998 3000 3001 3001 3002 3001 3001 3002 3003 3004 3005 3006 3006 3007 3007 3007 3008 3008 3009 3009 3009 3009 3008 3007 3005 3004
2948 2950 2952 2954 2955 2957 2959 2961 2964 2967 2969 2974 2979 2984 2988 2991 2994 2996 2997 2998 2998 2998 2999 2999 2999 3000 3001 3002 3003 3004 3004 3005 3005 3005 3006 3006 3007 3007 3008 3007 3006 3005 3004 3003
2950 2952 2953 2954 2957 2959 2961 2964 2966 2968 2971 2976 2981 2984 2988 2990 2992 2993 2994 2995 2995 2997 2997 2999 2999 3000 3000 3000 3001 3001 3002 3002 3002 3003 3003 3004 3005 3005 3006 3005 3004 3003 3002 3001
2951 2953 2955 2957 2959 2961 2963 2966 2968 2970 2973 2978 2981 2984 2986 2988 2990 2991 2991 2992 2994 2995 2997 2997 2997 2998 2998 2998 2998 2999 2999 2999 2999 3000 3001 3002 3003 3003 3003 3002 3001 3001 2999 2998